Estación municipal de St. Hilari Sacalm (La Selva, Guilleries)

Consulta los datos en tiempo real de la estación municipal de St. Hilari Sacalm





Hora UTC 20:40
Temperatura 23.4 ºC
Humedad 50.3 %
Presión 1025.3 hPa
Pluja 0.0 mm
Velocidad viento 3.0 km/h
Dirección viento SW
Radiación solar 0.1 W/m²

Webcam

Datos diarios 2026-09-05



Hora UTC (invierno +1h; verano +2h)
Temperatura (ºC) Humedad (%) Presión (hPa) Velocidad viento (km/h) Precipitación (mm) Radiación solar (W/m²)
Hora UTC Aire Humedad Presión Vel. Dir. Vel. Max Dir. Intent. máx 5 min. Rad. Sol.
00:05 24.7 56.0 1024.0 0.7 NW 0.7 NW 0.0 0.1
00:10 24.7 56.4 1024.0 1.7 WNW 8.8 W 0.0 0.1
00:15 24.4 57.7 1024.0 0.1 WNW 3.4 WNW 0.0 0.1
00:20 24.0 59.5 1024.0 1.9 WNW 8.8 WNW 0.0 0.1
00:25 23.6 61.3 1024.0 1.0 WNW 8.8 WNW 0.0 0.1
00:30 23.0 63.5 1024.0 0.4 W 6.1 WNW 0.0 0.1
00:35 22.7 65.1 1023.9 0.3 WNW 6.1 NW 0.0 0.1
00:40 22.5 65.8 1023.9 0.6 W 6.1 WNW 0.0 0.1
00:45 22.2 66.7 1023.9 0.0 NNE 0.0 SW 0.0 0.1
00:50 22.2 67.9 1023.9 0.5 WNW 8.8 WNW 0.0 0.1
00:55 23.1 65.6 1023.9 0.0 NNE 0.0 NW 0.0 0.1
01:00 23.7 63.4 1023.9 0.0 NNE 0.0 NW 0.0 0.1
01:05 24.0 62.4 1023.9 0.1 NNW 3.4 N 0.0 0.1
01:10 23.9 63.1 1024.0 0.0 NNE 0.0 NNW 0.0 0.1
01:15 23.9 62.7 1024.0 0.0 NNE 0.0 NNW 0.0 0.1
01:20 24.1 61.8 1024.0 1.1 NW 8.8 WNW 0.0 0.1
01:25 23.9 62.0 1024.0 0.8 WNW 8.8 WNW 0.0 0.1
01:30 23.4 63.0 1024.0 0.0 NNE 0.0 W 0.0 0.1
01:35 22.7 65.7 1024.0 0.0 NNE 0.0 WSW 0.0 0.1
01:40 22.2 68.0 1024.0 0.0 NNE 0.0 SSW 0.0 0.2
01:45 21.9 69.1 1024.0 0.0 NNE 0.0 WSW 0.0 0.2
01:50 21.8 69.7 1024.0 0.0 NNE 0.0 S 0.0 0.1
01:55 21.9 69.2 1024.1 0.1 WSW 6.1 WSW 0.0 0.1
02:00 21.8 69.9 1024.1 0.0 NNE 0.0 SSW 0.0 0.1
02:05 21.5 71.6 1024.0 0.0 NNE 0.0 SW 0.0 0.1
02:10 21.2 72.7 1024.1 0.1 SSW 3.4 SSW 0.0 0.1
02:15 21.0 73.1 1024.1 0.2 W 6.1 W 0.0 0.1
02:20 21.1 73.1 1024.1 0.7 W 8.8 W 0.0 0.1
02:25 21.2 72.7 1024.0 1.1 W 8.8 WSW 0.0 0.1
02:30 21.4 72.1 1024.0 0.0 NNE 0.0 SW 0.0 0.1
02:35 21.8 70.4 1024.0 0.0 NNE 0.0 SSW 0.0 0.1
02:40 21.8 70.1 1024.0 0.0 NNE 0.0 WNW 0.0 0.1
02:45 21.7 70.3 1024.0 0.0 NNE 0.0 SW 0.0 0.1
02:50 21.7 70.3 1024.0 0.0 NNE 0.0 S 0.0 0.1
02:55 21.5 71.0 1024.0 0.0 NNE 0.0 SW 0.0 0.1
03:00 21.4 71.1 1024.0 0.0 WSW 3.4 WSW 0.0 0.1
03:05 21.4 71.2 1024.0 0.0 NNE 0.0 S 0.0 0.1
03:10 21.3 71.0 1024.0 0.0 NNE 0.0 S 0.0 0.1
03:15 21.3 70.8 1024.0 0.0 NNE 0.0 SSE 0.0 0.1
03:20 21.2 71.3 1024.0 0.0 NNE 0.0 SSW 0.0 0.2
03:25 21.0 71.5 1024.0 0.0 NNE 0.0 SW 0.0 0.1
03:30 21.1 70.6 1024.0 0.0 NNE 0.0 S 0.0 0.1
03:35 21.0 70.6 1024.0 0.0 NNE 0.0 ESE 0.0 0.1
03:40 21.0 70.9 1024.0 0.0 NNE 0.0 WSW 0.0 0.1
03:45 20.8 71.9 1024.0 0.0 NNE 0.0 WSW 0.0 0.1
03:50 20.6 71.8 1024.0 0.0 NNE 0.0 SSW 0.0 0.1
03:55 20.6 71.7 1024.0 0.0 NNE 0.0 S 0.0 0.1
04:00 20.6 71.7 1024.0 0.0 NNE 0.0 S 0.0 0.1
04:05 20.7 70.7 1024.0 0.0 NNE 0.0 SSW 0.0 0.1
04:10 20.8 69.2 1023.9 0.0 NNE 0.0 SSW 0.0 0.1
04:15 20.8 69.3 1023.9 0.0 NNE 0.0 SW 0.0 0.1
04:20 20.7 68.6 1023.9 0.0 NNE 0.0 SSW 0.0 0.1
04:25 20.7 68.2 1023.9 0.0 NNE 0.0 SSW 0.0 0.1
04:30 20.5 68.4 1023.9 0.0 NNE 0.0 SSW 0.0 0.1
04:35 20.4 68.8 1023.9 0.0 NNE 0.0 WSW 0.0 0.1
04:40 20.2 69.3 1023.9 0.4 SW 6.1 WSW 0.0 0.1
04:45 20.1 67.9 1023.9 0.0 NNE 0.0 SSW 0.0 0.1
04:50 20.1 66.5 1024.0 0.1 WSW 6.1 WSW 0.0 0.2
04:55 20.2 64.3 1024.0 0.1 SW 6.1 SW 0.0 0.2
05:00 20.4 64.1 1024.1 0.0 WSW 3.4 WSW 0.0 0.2
05:05 20.3 64.8 1024.1 0.2 SSW 6.1 SSW 0.0 0.3
05:10 20.1 65.7 1024.1 0.0 WSW 3.4 SSW 0.0 0.8
05:15 19.9 64.8 1024.1 0.0 SW 3.4 SW 0.0 1.6
05:20 20.2 63.8 1024.2 0.1 SW 3.4 SSW 0.0 2.5
05:25 20.3 61.5 1024.3 0.5 WSW 6.1 WSW 0.0 3.9
05:30 20.5 60.5 1024.3 0.0 WSW 3.4 WSW 0.0 6.4
05:35 20.6 61.4 1024.4 0.0 NNE 0.0 WSW 0.0 11.0
05:40 20.6 62.7 1024.4 0.0 NNE 0.0 S 0.0 17.5
05:45 20.4 62.5 1024.4 0.4 WSW 6.1 SW 0.0 24.3
05:50 20.4 61.7 1024.4 0.0 WSW 3.4 WSW 0.0 33.8
05:55 20.7 62.1 1024.4 0.0 NNE 0.0 SSW 0.0 48.2
06:00 20.8 61.8 1024.5 0.0 NNE 0.0 SSW 0.0 60.8
06:05 21.1 61.2 1024.6 0.0 NNE 0.0 SW 0.0 72.8
06:10 21.2 61.0 1024.6 0.0 NNE 0.0 SSW 0.0 83.4
06:15 21.4 60.6 1024.6 0.0 NNE 0.0 SSW 0.0 92.2
06:20 21.7 60.2 1024.6 0.0 NNE 0.0 SSW 0.0 81.3
06:25 21.9 58.1 1024.7 0.0 NNE 0.0 SSW 0.0 98.1
06:30 22.1 59.4 1024.7 0.0 NNE 0.0 S 0.0 112.1
06:35 22.1 58.8 1024.7 0.0 NNE 0.0 SSW 0.0 83.5
06:40 22.3 57.8 1024.8 0.0 NNE 0.0 SSW 0.0 114.3
06:45 22.6 57.0 1024.8 0.0 NNE 0.0 SSW 0.0 155.7
06:50 22.9 56.5 1024.9 0.0 NNE 0.0 SSW 0.0 186.1
06:55 23.3 56.1 1024.9 0.0 NNE 0.0 SSW 0.0 210.7
07:00 23.9 54.4 1025.0 0.0 NNE 0.0 SSW 0.0 220.9
07:05 24.6 51.6 1025.1 0.0 NNE 0.0 SW 0.0 240.1
07:10 25.4 50.7 1025.1 0.0 NNE 0.0 SW 0.0 258.9
07:15 25.7 48.6 1025.1 0.0 NNE 0.0 S 0.0 276.1
07:20 26.4 43.6 1025.1 0.0 NNE 0.0 SSE 0.0 291.8
07:25 27.3 40.7 1025.1 0.0 NNE 0.0 SSE 0.0 308.0
07:30 28.2 38.2 1025.1 0.0 NNE 0.0 S 0.0 322.9
07:35 28.8 34.6 1025.2 0.0 NNE 0.0 S 0.0 336.9
07:40 28.5 34.1 1025.2 0.0 NNE 0.0 SSE 0.0 349.2
07:45 28.6 33.2 1025.2 3.4 SSE 11.5 S 0.0 343.5
07:50 28.6 33.5 1025.3 0.3 SSE 6.1 SSE 0.0 373.2
07:55 28.8 32.9 1025.2 4.7 S 11.5 S 0.0 393.2
08:00 28.9 33.0 1025.3 4.1 S 11.5 S 0.0 405.0
08:05 28.8 32.8 1025.3 7.5 S 11.5 S 0.0 418.6
08:10 28.8 33.1 1025.3 5.5 S 11.5 SSE 0.0 434.5
08:15 29.3 32.7 1025.4 0.5 SSE 8.8 S 0.0 447.6
08:20 29.7 32.5 1025.4 3.6 S 11.5 SSW 0.0 460.7
08:25 29.5 32.9 1025.5 0.9 SSE 11.5 SSE 0.0 473.8
08:30 29.3 32.9 1025.5 4.7 SSE 11.5 SSE 0.0 486.6
08:35 29.4 32.5 1025.5 3.0 SSE 8.8 S 0.0 499.4
08:40 29.8 32.8 1025.5 3.4 S 11.5 S 0.0 511.2
08:45 29.9 32.5 1025.5 4.1 S 14.2 SW 0.0 523.3
08:50 29.7 32.3 1025.5 1.1 SE 11.5 ESE 0.0 535.7
08:55 29.5 33.1 1025.6 2.6 S 11.5 S 0.0 547.7
09:00 29.8 32.4 1025.7 6.2 SE 14.2 SE 0.0 559.1
09:05 29.5 32.9 1025.7 5.7 SSE 11.5 W 0.0 570.1
09:10 29.2 33.3 1025.7 6.4 SSE 16.9 SE 0.0 581.9
09:15 29.4 33.2 1025.7 7.4 S 14.2 ESE 0.0 593.7
09:20 29.5 33.1 1025.8 8.2 S 19.6 S 0.0 603.3
09:25 29.7 32.8 1025.8 5.7 S 11.5 SSE 0.0 612.9
09:30 30.1 32.2 1025.8 4.7 S 14.2 S 0.0 622.8
09:35 30.3 32.3 1025.8 7.4 S 16.9 S 0.0 632.6
09:40 30.0 32.6 1025.9 8.3 S 14.2 S 0.0 641.1
09:45 30.2 32.3 1025.9 7.1 S 14.2 SW 0.0 649.6
09:50 30.1 32.1 1025.8 7.3 SSE 16.9 SSE 0.0 659.4
09:55 30.0 32.0 1025.8 6.9 SSE 14.2 SSE 0.0 667.5
10:00 30.0 32.4 1025.8 9.6 S 16.9 S 0.0 675.5
10:05 29.8 32.8 1025.8 7.5 SSE 11.5 SSE 0.0 682.5
10:10 29.7 33.7 1025.8 9.1 S 19.6 SSE 0.0 689.0
10:15 30.3 33.2 1025.8 8.3 SSE 16.9 S 0.0 694.6
10:20 30.1 33.6 1025.8 9.2 SSE 19.6 SSE 0.0 701.0
10:25 30.5 33.4 1025.8 5.1 SSE 16.9 SE 0.0 706.8
10:30 30.3 33.4 1025.8 8.2 SSE 16.9 S 0.0 712.3
10:35 30.3 33.8 1025.8 9.2 S 19.6 S 0.0 716.8
10:40 30.4 33.9 1025.7 5.8 SSE 14.2 S 0.0 721.4
10:45 31.0 33.0 1025.7 6.1 S 11.5 S 0.0 726.2
10:50 31.1 33.0 1025.7 8.5 SSE 16.9 S 0.0 729.2
10:55 30.9 33.2 1025.7 7.5 S 16.9 S 0.0 732.7
11:00 31.1 33.0 1025.7 10.4 S 19.6 S 0.0 736.2
11:05 31.1 33.0 1025.7 9.0 S 16.9 S 0.0 733.9
11:10 31.2 32.8 1025.6 9.2 SSE 19.6 S 0.0 742.7
11:15 31.2 32.9 1025.6 10.1 S 19.6 SSE 0.0 744.5
11:20 31.5 32.4 1025.6 8.2 S 16.9 SSW 0.0 747.1
11:25 31.4 32.5 1025.6 8.6 S 19.6 S 0.0 749.9
11:30 31.6 32.4 1025.6 10.9 S 22.3 SSW 0.0 753.3
11:35 31.4 32.8 1025.6 9.6 S 16.9 SSE 0.0 728.2
11:40 31.5 32.5 1025.6 8.9 S 19.6 SSW 0.0 719.8
11:45 31.3 32.8 1025.5 12.2 SSE 25.0 S 0.0 715.0
11:50 31.1 33.2 1025.5 10.5 S 19.6 SSE 0.0 743.4
11:55 31.2 32.9 1025.5 10.6 S 19.6 S 0.0 741.1
12:00 31.3 32.8 1025.5 11.2 S 22.3 S 0.0 735.2
12:05 31.4 33.0 1025.5 7.1 SSE 16.9 SSE 0.0 737.4
12:10 31.8 32.3 1025.5 8.6 S 19.6 S 0.0 738.7
12:15 31.6 32.5 1025.4 9.0 SSE 22.3 S 0.0 729.2
12:20 31.2 33.1 1025.4 10.1 SE 22.3 SSE 0.0 729.3
12:25 31.3 32.4 1025.3 11.6 S 22.3 S 0.0 732.0
12:30 31.4 32.5 1025.3 11.9 SSE 25.0 SSE 0.0 733.2
12:35 30.7 33.8 1025.3 11.6 SE 22.3 SE 0.0 689.1
12:40 31.0 33.5 1025.3 11.9 SE 22.3 SE 0.0 711.4
12:45 31.1 34.0 1025.3 9.2 SE 22.3 SE 0.0 715.2
12:50 31.5 33.6 1025.3 10.3 ESE 22.3 SE 0.0 715.4
12:55 31.0 33.9 1025.2 12.7 SSE 25.0 SE 0.0 714.4
13:00 30.7 34.5 1025.2 9.1 SE 19.6 SE 0.0 707.8
13:05 30.7 34.5 1025.2 13.1 SE 25.0 SE 0.0 690.8
13:10 30.6 34.3 1025.2 10.9 SE 22.3 SE 0.0 685.3
13:15 31.0 33.9 1025.2 10.5 SE 19.6 ESE 0.0 690.6
13:20 30.7 34.4 1025.2 12.6 SE 25.0 SSE 0.0 686.8
13:25 30.7 34.2 1025.1 13.2 SE 22.3 SE 0.0 666.3
13:30 30.7 34.0 1025.1 12.1 SE 22.3 ESE 0.0 666.5
13:35 30.8 33.8 1025.1 9.5 SSE 25.0 SE 0.0 662.3
13:40 30.4 34.4 1025.1 14.8 SE 27.7 ESE 0.0 650.4
13:45 30.1 35.1 1025.1 12.3 SE 25.0 SE 0.0 639.6
13:50 30.1 35.0 1025.0 11.8 SE 22.3 S 0.0 619.3
13:55 29.9 35.7 1025.0 12.5 SE 25.0 ESE 0.0 606.7
14:00 30.0 35.7 1025.0 11.7 SE 19.6 ESE 0.0 597.8
14:05 30.1 36.0 1025.0 11.6 SE 27.7 SE 0.0 578.3
14:10 29.9 36.1 1025.0 10.5 SE 22.3 ESE 0.0 569.9
14:15 29.7 36.7 1024.9 11.0 SE 22.3 SE 0.0 572.3
14:20 29.7 37.1 1024.9 12.7 ESE 27.7 ESE 0.0 569.5
14:25 29.9 36.9 1025.0 8.4 SE 19.6 SE 0.0 559.9
14:30 29.7 36.6 1024.9 12.5 SSE 22.3 SE 0.0 542.1
14:35 29.8 36.6 1025.0 10.3 SSE 22.3 S 0.0 516.7
14:40 29.7 36.8 1024.9 10.3 SE 19.6 ESE 0.0 506.9
14:45 29.6 37.3 1024.9 12.7 ESE 22.3 SE 0.0 499.4
14:50 29.6 37.5 1024.8 9.3 SE 16.9 ESE 0.0 490.8
14:55 29.7 37.1 1024.7 11.9 SE 27.7 ESE 0.0 476.5
15:00 29.7 37.0 1024.7 10.2 SSE 22.3 S 0.0 464.4
15:05 29.4 38.4 1024.8 8.8 ESE 16.9 SE 0.0 447.8
15:10 29.3 39.0 1024.7 9.3 SE 22.3 S 0.0 435.6
15:15 29.5 37.9 1024.8 5.7 SE 14.2 ESE 0.0 415.3
15:20 29.4 39.6 1024.8 6.5 E 16.9 ESE 0.0 406.0
15:25 28.9 40.3 1024.7 3.5 E 11.5 E 0.0 393.4
15:30 29.0 39.1 1024.6 9.4 ESE 16.9 E 0.0 384.5
15:35 29.0 40.1 1024.6 7.4 E 16.9 SE 0.0 364.1
15:40 28.6 41.1 1024.7 4.5 E 11.5 E 0.0 335.0
15:45 28.2 41.8 1024.6 1.5 ENE 8.8 NE 0.0 303.0
15:50 28.2 42.0 1024.7 2.5 ENE 8.8 ENE 0.0 246.8
15:55 28.1 42.3 1024.7 2.1 ENE 11.5 E 0.0 212.2
16:00 27.7 42.8 1024.7 6.8 ENE 11.5 E 0.0 185.6
16:05 27.5 43.8 1024.8 3.3 ENE 11.5 NE 0.0 187.3
16:10 27.4 44.2 1024.8 0.1 NE 6.1 ENE 0.0 163.9
16:15 27.2 44.8 1024.8 2.1 ENE 8.8 ENE 0.0 156.6
16:20 27.1 45.1 1024.8 4.5 ENE 8.8 E 0.0 168.7
16:25 27.0 45.4 1024.8 0.9 ENE 8.8 ENE 0.0 161.2
16:30 26.9 45.6 1024.8 4.8 ENE 8.8 ENE 0.0 106.7
16:35 26.7 45.8 1024.8 0.4 ENE 6.1 ENE 0.0 71.3
16:40 26.6 46.2 1024.8 0.1 ENE 3.4 ENE 0.0 64.3
16:45 26.6 46.3 1024.8 0.0 NNE 0.0 ENE 0.0 62.6
16:50 26.5 46.9 1024.9 0.0 NNE 0.0 ENE 0.0 61.6
16:55 26.3 46.8 1024.9 0.0 NNE 0.0 ENE 0.0 59.6
17:00 26.3 47.5 1024.9 0.0 NNE 0.0 ENE 0.0 57.1
17:05 25.9 48.6 1024.9 0.0 NNE 0.0 NNE 0.0 54.6
17:10 26.0 47.5 1025.0 0.0 NNE 0.0 ENE 0.0 51.6
17:15 26.1 47.0 1025.0 0.0 NNE 0.0 ENE 0.0 48.7
17:20 25.8 48.8 1025.0 0.0 NNE 0.0 NE 0.0 45.4
17:25 25.7 48.6 1025.0 0.0 NNE 0.0 N 0.0 42.3
17:30 25.6 49.0 1025.0 0.0 NNE 0.0 N 0.0 39.1
17:35 25.5 49.3 1025.0 0.0 NNE 0.0 NNW 0.0 35.8
17:40 25.5 48.9 1024.9 0.0 NNE 0.0 NNW 0.0 32.4
17:45 25.3 49.0 1024.9 0.0 NNE 0.0 NNW 0.0 28.5
17:50 25.3 49.1 1024.9 0.0 NNE 0.0 SSE 0.0 24.1
17:55 25.3 48.4 1024.8 0.0 NNE 0.0 S 0.0 19.5
18:00 25.4 47.3 1024.8 0.0 NNE 0.0 S 0.0 15.0
18:05 25.6 47.4 1024.8 0.0 NNE 0.0 SW 0.0 10.1
18:10 25.4 48.0 1024.8 1.5 SW 8.8 SW 0.0 6.3
18:15 25.2 48.9 1024.8 0.9 WSW 8.8 SW 0.0 4.2
18:20 25.0 50.7 1024.8 0.3 WSW 6.1 W 0.0 2.2
18:25 24.7 52.0 1024.8 0.1 W 6.1 W 0.0 1.0
18:30 24.5 52.6 1024.8 0.9 WSW 8.8 SW 0.0 0.6
18:35 24.2 52.7 1024.8 0.0 NNE 0.0 W 0.0 0.3
18:40 24.0 53.3 1024.8 0.6 WSW 6.1 WSW 0.0 0.2
18:45 23.9 54.1 1024.8 0.1 WSW 6.1 W 0.0 0.1
18:50 23.7 54.6 1024.8 0.9 W 8.8 SW 0.0 0.1
18:55 23.6 54.8 1024.9 0.0 WSW 3.4 WSW 0.0 0.1
19:00 23.8 52.7 1024.9 1.4 WNW 11.5 WNW 0.0 0.1
19:05 24.2 51.4 1024.9 0.8 WNW 8.8 NW 0.0 0.2
19:10 24.4 49.7 1025.0 3.4 NW 11.5 NNW 0.0 0.1
19:15 24.9 47.1 1025.0 1.7 NW 8.8 NW 0.0 0.2
19:20 25.0 46.4 1025.0 0.9 NW 11.5 WNW 0.0 0.1
19:25 25.0 45.9 1025.1 2.0 NW 11.5 W 0.0 0.2
19:30 25.1 45.3 1025.1 1.1 WNW 8.8 NW 0.0 0.2
19:35 25.0 45.5 1025.1 0.0 NNE 0.0 NW 0.0 0.1
19:40 25.1 44.5 1025.2 3.3 NW 11.5 NW 0.0 0.1
19:45 25.3 43.7 1025.2 4.7 NW 11.5 NW 0.0 0.1
19:50 25.4 43.4 1025.2 4.9 NW 8.8 WNW 0.0 0.2
19:55 25.5 43.1 1025.2 4.5 NW 11.5 NNW 0.0 0.2
20:00 25.6 42.9 1025.2 2.7 NW 11.5 W 0.0 0.1
20:05 25.6 42.9 1025.2 3.1 WNW 11.5 W 0.0 0.1
20:10 25.4 43.9 1025.2 0.2 W 6.1 WNW 0.0 0.1
20:15 24.9 46.0 1025.3 0.4 W 8.8 NW 0.0 0.1
20:20 24.5 47.1 1025.3 0.7 WNW 6.1 W 0.0 0.1
20:25 24.2 48.2 1025.3 0.8 WSW 8.8 NW 0.0 0.1
20:30 23.8 49.0 1025.3 0.7 W 8.8 NW 0.0 0.2
20:35 23.6 49.8 1025.2 1.2 WSW 8.8 W 0.0 0.2
20:40 23.4 50.3 1025.3 3.0 SW 11.5 WSW 0.0 0.1
Máxima 31.8 73.1 1025.9 14.8 SE 27.7 ESE 0.0 753.3
Mínima 19.9 32.0 1023.9
Total 0.0